GFSWCAN_sfc_thetae_177.txt.gz
Theta_e
311 310 310 310 310 310 310 310 310 310 310 310 310 311 310 310 310 308 303 306 302 296 296 299 299 296 296 296 292 297 297 298 299 297 297 299 299 302 300 305 303 304 301 299 301 298 296 317 313 305 309 314 315 315
310 310 310 310 310 310 310 310 310 310 310 310 310 311 310 310 310 309 300 305 308 299 297 303 302 303 301 300 296 297 295 297 301 297 297 298 298 300 303 299 310 302 308 304 304 303 316 317 313 320 319 318 315 315
310 310 310 310 310 310 310 309 310 309 310 310 310 310 310 309 309 307 303 305 303 298 297 298 298 303 305 304 303 292 296 301 301 302 300 300 298 303 298 302 306 308 311 306 309 311 314 317 318 319 320 323 320 320
309 310 310 310 309 309 310 309 309 309 309 310 310 310 310 310 309 308 303 306 304 299 291 293 304 301 305 305 305 301 299 299 300 301 298 298 297 304 299 302 303 307 310 308 310 312 315 316 319 319 324 325 326 325
309 309 309 310 310 309 309 309 309 309 309 309 310 310 310 310 309 308 306 306 305 298 291 294 299 302 303 304 303 304 300 298 297 296 297 297 302 302 304 304 303 309 307 306 303 313 314 315 321 325 319 323 321 320
308 309 309 310 310 310 309 309 309 309 309 309 309 310 310 310 309 305 299 307 308 307 295 289 299 299 303 306 305 303 302 300 299 297 298 301 306 302 300 300 311 313 315 316 313 317 317 320 325 331 325 326 330 329
308 309 309 310 310 310 309 309 309 309 309 309 309 309 309 309 307 301 300 306 309 306 295 290 291 301 305 306 305 303 303 301 300 299 299 300 301 304 301 298 306 311 315 323 325 326 324 328 326 333 331 332 331 332
308 309 309 309 310 309 309 309 309 309 309 309 309 309 309 309 307 303 307 308 309 302 299 289 291 296 305 300 298 304 298 300 300 299 301 301 303 304 300 307 311 315 316 326 327 327 324 325 328 329 331 331 329 329
308 308 309 309 309 309 309 309 309 309 309 309 309 308 306 304 300 303 311 308 306 300 292 292 289 288 303 301 303 302 305 296 302 298 299 300 299 298 305 308 309 321 322 324 327 329 328 327 326 326 326 331 331 332
308 308 308 309 309 309 309 309 309 309 308 308 307 301 298 302 311 308 302 297 296 296 295 290 298 292 300 299 299 299 302 296 294 297 301 297 296 302 305 308 311 325 326 326 323 322 324 325 326 326 330 329 332 337
308 308 308 308 308 309 309 309 309 308 308 305 301 299 305 310 303 298 293 291 292 289 292 293 294 292 300 295 296 300 298 298 293 295 296 294 292 299 306 309 312 325 325 325 325 325 325 327 327 327 328 331 333 340
307 308 308 308 309 309 309 309 309 308 308 306 304 306 305 300 294 290 289 292 290 289 297 295 297 296 301 305 299 301 296 298 292 305 297 292 296 304 307 308 314 323 324 325 326 326 326 326 329 329 328 328 338 341
307 307 308 308 309 309 310 310 309 307 307 308 304 299 297 294 287 286 286 289 290 296 298 300 298 301 303 304 300 299 295 295 303 297 295 299 306 310 312 318 323 325 327 328 327 328 330 332 335 336 335 331 340 340
307 307 307 308 309 310 310 309 310 310 309 303 298 288 291 290 291 292 292 294 299 299 299 301 299 298 302 297 298 295 301 303 295 294 295 302 308 311 313 319 321 321 324 325 327 330 329 332 332 333 334 336 338 336
307 307 308 312 311 310 309 310 311 312 311 302 301 295 296 300 299 300 302 301 304 304 303 303 303 302 301 298 301 297 296 294 295 295 301 306 309 312 313 318 320 320 321 322 326 327 327 329 328 327 330 332 333 333
307 308 315 311 310 309 309 313 311 314 316 308 306 301 304 301 301 303 304 304 310 311 311 310 303 300 298 299 296 294 288 288 296 301 305 307 308 309 315 319 321 321 321 322 325 325 325 325 326 324 324 325 325 324
306 318 312 310 309 309 313 320 323 313 310 307 306 311 309 307 305 305 306 307 313 305 299 301 294 292 298 292 292 295 295 298 302 304 306 307 307 310 316 319 319 320 320 322 323 324 323 323 322 320 317 318 318 318
312 316 311 309 308 314 327 323 315 309 305 305 304 304 310 312 309 309 310 309 307 306 303 298 300 294 291 290 292 297 301 303 305 305 306 307 308 313 315 312 311 313 318 318 320 319 320 318 317 316 315 316 316 315
307 307 307 307 308 309 317 316 319 304 306 306 309 311 311 310 311 312 310 314 311 311 308 302 296 295 296 300 300 301 302 303 302 304 306 307 308 308 309 310 311 310 309 310 313 316 317 317 316 316 315 315 313 313
307 309 310 310 312 318 313 314 320 311 306 309 310 310 309 309 310 310 311 310 309 308 303 301 301 302 302 305 307 307 307 307 304 302 303 306 308 308 307 307 307 310 309 309 309 307 310 312 315 315 314 313 312 312
315 322 317 320 323 319 317 315 311 313 311 309 313 310 309 312 309 309 308 308 304 304 303 307 309 311 312 312 311 310 309 309 306 305 304 304 308 307 307 307 309 309 307 308 307 307 307 307 311 313 314 314 313 313
324 317 324 329 318 318 317 322 317 317 314 308 311 313 308 305 305 307 310 307 306 306 311 308 312 313 313 312 313 314 314 313 311 308 305 307 307 307 307 308 307 306 307 308 308 308 308 309 309 311 312 312 312 312
318 319 324 323 311 303 304 323 313 314 307 307 310 305 305 306 309 312 304 307 307 315 314 312 315 317 316 319 315 312 316 315 313 312 312 313 313 312 310 311 312 309 308 309 311 311 311 305 309 311 312 312 310 309
313 319 315 312 309 301 315 312 313 310 311 307 305 302 304 307 312 305 302 305 309 314 313 315 312 309 310 311 307 306 307 308 308 311 313 313 312 312 313 312 313 314 313 313 312 313 313 312 308 312 312 312 312 310
305 306 310 293 312 310 304 304 305 306 303 306 303 304 306 310 303 301 301 306 309 310 311 311 310 310 307 307 308 307 308 306 305 305 308 308 309 310 307 310 308 305 305 304 307 312 313 313 313 311 312 311 311 311
293 310 303 308 308 306 306 302 302 303 303 303 304 309 310 306 301 299 304 309 310 311 311 311 309 308 308 308 306 305 305 307 306 303 305 305 304 302 302 302 300 301 306 305 305 304 304 304 307 310 310 310 303 308
298 308 314 320 313 313 309 310 308 305 302 302 305 305 303 298 299 305 311 314 310 315 316 316 315 310 310 309 309 307 307 307 305 304 306 304 303 302 300 298 298 300 305 306 305 304 304 305 305 305 305 306 306 307
313 312 308 311 312 313 308 307 306 304 306 309 307 303 300 300 301 313 313 318 318 318 317 312 315 314 311 310 308 308 307 307 307 306 305 305 305 303 302 301 301 296 302 305 304 306 305 304 304 305 305 304 304 305
314 314 313 308 308 309 309 307 307 309 313 310 306 304 306 312 314 313 315 315 316 316 315 312 313 315 312 311 309 307 307 306 303 300 299 298 299 299 301 300 300 302 303 303 298 301 306 304 306 305 305 304 304 304
313 314 310 307 306 305 310 315 311 314 314 314 314 315 314 314 316 318 316 315 313 313 312 311 310 309 307 306 306 306 307 307 306 303 300 298 299 300 300 299 300 301 301 301 300 300 299 301 300 304 302 301 300 300
315 314 311 310 307 310 310 313 315 315 314 313 314 310 311 312 315 319 317 315 315 314 311 309 309 309 307 307 306 304 303 307 308 305 303 302 300 299 299 300 300 300 300 299 299 298 298 298 298 298 297 298 298 297
314 310 308 307 309 314 315 312 311 312 312 312 310 312 312 311 310 313 318 316 313 310 306 308 308 308 310 310 310 309 302 307 305 304 301 299 298 299 299 300 299 299 298 297 297 296 295 295 296 295 295 295 295 295
311 311 310 309 309 309 313 310 308 308 308 308 309 311 312 310 307 313 318 317 312 311 309 310 310 311 312 311 310 308 303 305 299 292 292 292 292 292 296 298 299 298 296 296 295 294 294 294 293 293 293 292 292 292

GFSWCAN_sfc_thetae_183.txt.gz
Theta_e
311 311 310 310 310 311 311 311 310 310 310 310 310 310 310 310 309 305 300 300 294 288 290 294 295 291 290 288 286 291 290 291 288 287 288 288 289 293 291 293 293 292 291 291 293 288 290 305 305 303 305 304 308 308
310 310 310 310 311 311 311 310 310 310 310 310 309 310 310 310 310 307 299 303 303 296 293 297 298 298 297 296 292 292 291 291 291 285 286 288 290 292 289 289 296 293 296 294 298 300 301 304 307 305 306 307 307 305
310 310 310 310 310 311 311 310 310 310 310 310 310 309 310 310 310 307 300 301 299 295 291 289 291 297 296 297 300 290 293 295 294 294 288 289 289 292 289 291 293 297 299 296 298 301 306 308 309 311 310 313 313 310
310 310 310 309 310 310 311 310 310 310 309 310 310 310 310 310 309 308 302 303 301 297 289 289 297 294 299 298 298 299 298 298 293 294 291 288 291 294 293 294 293 298 301 298 298 303 307 309 310 313 317 318 319 314
309 309 309 309 310 310 310 310 310 310 309 309 310 310 310 309 308 307 305 304 304 297 290 290 295 296 294 295 295 297 297 295 292 289 291 288 295 296 297 296 294 302 300 296 299 305 307 304 314 314 314 317 317 315
309 309 309 309 309 310 310 310 309 309 309 309 309 309 309 309 308 303 297 305 306 304 294 287 291 292 294 295 297 298 297 293 292 289 292 293 298 297 294 295 302 307 308 311 307 319 313 316 323 323 319 321 320 319
308 309 309 309 309 309 309 310 309 309 309 309 309 309 309 308 305 299 297 303 307 305 295 289 286 291 294 294 297 297 296 294 294 290 290 294 297 300 297 295 304 307 305 306 309 319 316 320 318 323 325 326 322 322
308 308 309 309 308 308 308 308 309 310 309 309 309 309 309 309 307 302 305 308 307 299 296 289 286 286 293 291 291 295 293 293 292 291 292 295 298 299 296 299 304 306 305 305 304 319 315 317 323 325 326 326 327 329
308 308 309 309 308 308 308 308 310 309 309 309 309 308 304 303 299 301 309 308 305 299 291 291 285 282 296 294 292 293 294 288 293 289 289 293 296 291 298 301 303 302 301 301 305 313 319 317 319 324 325 326 323 334
308 308 308 308 308 308 308 308 309 308 308 308 304 300 295 299 310 309 302 297 296 296 294 289 294 287 290 291 289 289 290 288 286 290 292 290 291 298 298 300 301 302 303 304 302 308 317 319 319 322 324 326 326 332
308 308 308 308 308 309 309 309 309 307 307 303 299 297 299 309 302 297 292 290 291 288 291 291 292 290 294 286 287 290 288 288 284 288 288 286 287 297 307 301 301 301 302 304 306 317 320 321 321 323 325 328 330 337
307 307 307 308 308 309 309 309 308 303 305 304 303 305 303 298 294 290 287 289 286 286 291 291 293 294 293 295 290 291 288 289 285 293 288 286 297 304 307 309 312 314 312 306 322 322 324 327 327 326 326 331 333 335
307 307 307 307 308 309 310 309 308 308 306 304 302 298 296 294 289 286 285 287 286 290 292 296 295 296 296 298 294 292 288 288 293 289 291 295 302 302 305 308 310 314 318 320 321 324 325 327 328 327 327 330 331 332
306 307 307 307 309 310 309 309 309 307 306 298 299 291 295 294 295 294 296 297 300 299 297 298 296 295 297 295 295 291 292 292 287 286 290 298 301 303 306 308 309 310 315 317 319 321 323 324 325 324 326 328 329 329
306 307 307 309 309 309 309 309 309 304 301 300 301 292 295 301 302 302 301 299 301 301 300 297 296 295 293 289 288 288 287 288 290 291 297 301 304 304 306 308 309 311 314 316 317 318 319 319 320 318 319 320 322 324
307 307 309 308 308 308 308 308 306 304 307 302 300 296 298 297 298 300 302 301 304 298 298 298 294 295 294 294 290 289 288 287 291 298 302 304 304 306 308 310 311 313 315 315 314 316 318 317 316 314 315 315 317 319
306 306 309 307 307 308 308 307 306 305 302 301 298 299 298 297 297 299 300 300 304 300 294 296 293 292 296 290 287 290 290 295 299 301 303 304 304 305 308 308 309 310 312 312 315 316 315 316 315 314 312 310 311 312
300 303 306 307 306 307 308 307 306 305 301 302 297 298 299 298 297 298 299 300 300 299 297 295 299 292 290 288 292 297 300 302 303 303 304 305 306 306 308 308 308 309 308 309 312 315 316 316 314 313 311 310 312 312
303 304 306 307 306 306 308 305 304 297 297 298 298 299 298 299 299 299 299 300 300 301 298 294 294 294 295 298 298 300 302 303 301 303 305 306 306 306 307 308 308 308 308 308 309 310 312 312 312 312 312 312 310 310
307 308 310 310 309 308 303 302 305 301 298 300 299 299 298 298 300 300 300 300 297 297 296 295 295 295 295 297 303 304 305 305 302 301 302 304 306 306 306 306 306 307 308 308 308 306 308 308 311 311 311 310 310 310
309 314 311 309 309 309 304 301 300 301 299 297 299 299 297 299 297 297 297 299 297 294 294 297 298 299 300 300 300 302 304 303 303 301 299 302 303 304 305 307 307 307 306 307 306 307 306 307 308 309 309 309 310 310
308 313 312 316 311 305 301 303 302 302 300 298 298 297 296 295 295 296 298 296 295 298 298 296 298 300 298 297 297 301 301 301 302 302 302 301 302 300 299 300 304 304 304 306 306 307 308 309 310 311 310 309 308 309
311 312 313 314 306 296 297 305 303 301 298 298 299 296 295 295 296 298 294 295 299 303 302 299 300 299 296 296 296 296 296 295 294 295 299 300 298 298 297 296 297 296 297 302 307 307 307 303 307 310 311 311 310 309
311 310 308 306 300 295 303 301 303 301 300 300 299 295 295 296 297 295 293 295 300 302 299 298 297 295 295 295 293 293 294 293 293 294 294 292 291 290 291 292 293 295 294 295 298 301 303 307 304 308 309 310 310 310
300 298 301 293 302 301 301 299 300 298 296 298 299 297 297 298 293 293 292 295 299 299 299 299 298 296 293 293 293 293 294 292 291 290 291 291 289 291 291 292 293 295 296 296 296 298 299 301 301 301 301 302 302 306
293 301 299 305 304 302 299 297 297 296 298 298 298 299 298 296 294 292 294 298 300 302 301 300 299 295 294 293 292 293 294 293 292 291 290 290 290 288 287 289 290 292 294 294 294 295 295 297 300 299 299 299 296 300
295 300 302 306 304 304 302 302 302 298 298 297 297 297 295 292 292 296 300 303 302 305 304 302 302 297 295 294 294 295 294 293 294 292 291 291 291 290 289 288 288 291 293 294 294 295 295 296 299 299 298 298 298 299
308 304 301 303 301 302 301 300 299 298 299 300 299 296 295 297 296 301 303 305 305 305 305 304 304 302 298 296 296 296 295 295 295 294 294 293 291 291 291 291 292 292 293 293 293 295 296 296 297 297 297 295 295 296
306 308 306 302 302 300 301 300 300 300 302 301 299 298 299 301 305 303 304 306 305 300 299 298 297 298 297 297 298 296 295 294 293 290 288 287 287 289 290 291 291 292 291 291 292 293 294 294 294 294 295 295 294 294
304 307 304 304 301 298 301 303 302 303 303 303 304 304 305 305 307 309 307 307 303 299 298 297 296 297 296 298 296 294 294 294 293 290 287 286 287 288 289 290 290 289 289 290 290 292 292 292 291 291 290 290 290 290
308 303 302 303 301 302 303 302 303 304 305 304 306 304 305 307 309 309 308 305 300 299 300 297 297 297 299 296 294 292 290 291 290 290 289 289 288 289 289 289 289 289 289 289 289 289 289 288 288 287 287 287 287 288
305 303 302 301 302 304 305 303 301 301 303 305 304 305 306 304 302 304 304 300 301 302 299 298 298 297 297 296 295 295 292 290 290 290 290 289 288 289 288 288 288 289 289 288 287 287 287 286 286 286 285 285 286 286
304 303 303 301 302 302 302 302 300 301 302 302 303 305 305 303 300 303 302 302 301 301 298 295 294 294 297 296 294 292 291 290 290 290 289 289 289 288 286 287 288 289 288 287 287 287 287 287 286 286 286 285 285 285

GFSWCAN_sfc_thetae_186.txt.gz
Theta_e
310 310 311 311 311 311 311 311 311 311 311 311 310 310 310 309 309 305 302 300 297 291 289 292 293 288 290 291 285 290 288 290 290 286 285 286 287 291 289 292 289 288 288 287 288 287 288 304 304 301 306 306 307 307
310 310 310 310 311 311 311 311 311 311 311 310 311 310 309 309 309 307 299 304 303 295 292 295 297 298 295 295 291 291 291 290 291 287 285 284 288 290 288 288 294 292 293 291 293 293 301 302 306 307 308 307 307 309
311 310 310 310 310 310 310 311 310 310 310 310 310 311 310 310 309 307 301 301 300 295 294 292 290 296 298 298 300 289 293 296 294 293 288 286 286 290 287 290 291 296 298 294 297 300 306 305 308 308 308 309 309 311
311 310 309 310 310 310 310 311 310 310 310 310 310 310 310 310 309 307 302 303 300 296 289 289 296 292 298 296 298 298 296 298 297 295 291 288 286 291 290 294 295 300 302 299 297 304 310 309 311 317 318 314 314 312
310 310 309 309 309 310 310 310 310 310 310 310 310 310 310 310 308 306 304 303 304 296 289 290 295 294 293 295 296 297 296 294 293 290 290 289 289 293 298 299 297 304 300 298 300 306 306 310 314 320 321 316 318 316
310 310 309 309 309 309 309 310 309 310 310 310 309 309 310 309 308 303 296 304 305 303 294 288 290 291 292 293 293 293 293 293 292 290 291 293 293 298 294 297 307 307 309 304 300 301 310 316 321 322 322 322 318 317
309 310 309 309 309 308 309 309 309 309 310 310 309 309 309 308 305 298 296 303 307 305 295 287 284 290 292 291 294 295 295 292 292 292 291 293 293 302 296 295 307 309 305 304 304 302 310 316 313 319 324 327 323 329
309 310 309 309 309 309 308 308 308 309 310 309 309 309 309 308 306 301 305 308 307 299 296 289 285 285 291 290 289 293 292 293 292 292 293 293 298 301 294 302 306 308 303 302 301 304 304 316 320 320 324 328 329 332
309 309 309 308 308 309 308 307 308 309 309 309 309 308 305 302 299 300 309 309 306 299 291 289 284 279 294 293 290 292 291 286 293 290 291 291 294 290 298 300 302 303 301 301 303 304 316 321 321 321 322 328 328 329
309 309 308 308 308 308 309 308 308 308 308 308 304 301 295 299 309 309 303 297 297 297 295 289 293 286 289 290 291 290 289 287 286 291 292 289 288 297 301 302 304 304 304 303 300 299 308 318 321 321 321 331 333 335
309 309 308 308 308 309 309 309 308 307 307 300 299 297 302 309 302 297 292 289 288 285 289 291 291 290 292 285 285 288 287 286 284 288 288 286 286 298 307 308 310 309 312 312 306 303 314 320 323 322 323 330 334 335
309 309 308 308 308 309 310 309 308 301 303 301 303 304 303 298 294 289 287 288 285 285 287 290 292 293 293 291 289 289 287 288 285 293 287 285 289 299 303 305 309 310 312 315 317 309 321 325 325 324 324 327 331 333
308 308 307 307 308 309 309 309 308 306 305 301 301 298 296 295 291 288 287 290 290 286 289 293 294 294 294 296 294 290 287 286 292 292 289 290 297 300 304 304 307 310 312 314 320 322 324 325 326 324 323 326 327 330
308 307 307 308 308 309 309 309 308 306 302 296 296 290 294 293 294 296 297 297 300 298 294 296 295 295 297 295 293 290 291 292 286 286 290 296 299 302 303 305 308 308 310 312 316 319 321 323 324 323 322 322 323 325
307 307 308 308 309 309 309 309 309 302 301 298 297 289 291 296 297 298 302 299 300 301 298 295 295 295 293 288 288 287 286 286 288 289 294 300 303 304 305 307 308 309 310 312 316 317 317 321 320 320 321 318 319 320
307 307 305 308 308 309 308 308 304 303 304 300 299 295 297 294 297 298 298 299 302 300 300 299 295 294 293 292 289 287 287 285 288 294 300 302 303 305 307 308 310 311 314 315 314 316 317 319 318 317 318 315 315 315
306 305 307 307 307 308 308 305 304 303 300 300 296 296 295 294 294 295 295 296 300 299 294 296 292 291 295 291 286 288 289 294 299 301 302 302 303 304 306 308 309 309 309 311 315 317 317 318 315 314 313 312 312 312
299 301 306 307 306 306 305 306 303 301 297 297 295 297 297 296 295 297 297 297 298 295 295 293 296 293 291 290 292 297 300 301 302 302 303 304 305 305 306 306 307 308 308 309 311 312 312 313 312 312 313 312 310 310
302 304 306 307 307 304 305 304 303 296 296 297 297 297 297 298 298 298 297 299 298 298 296 295 293 291 292 296 298 298 300 302 301 301 303 305 306 306 306 307 307 307 307 308 307 307 309 310 310 311 311 311 309 310
307 308 310 309 308 305 302 301 303 299 296 298 297 298 296 297 298 297 298 299 296 296 294 294 294 294 293 295 297 299 300 303 299 298 301 301 301 301 303 306 306 307 307 308 308 304 308 308 309 309 309 309 309 309
308 312 311 309 310 306 302 300 299 298 297 296 297 296 296 296 296 296 298 300 298 294 294 297 298 299 295 296 296 297 298 300 299 301 299 298 299 297 296 297 300 305 306 306 306 307 306 307 308 309 309 309 310 310
307 312 310 313 308 303 300 301 301 300 299 297 297 296 294 294 295 295 297 299 296 296 297 296 300 297 294 294 294 294 294 299 299 298 297 296 292 292 293 293 294 294 296 299 303 306 307 309 309 311 310 310 308 309
310 310 311 311 305 295 296 304 301 300 298 297 297 295 294 294 295 297 294 295 297 298 298 297 297 296 294 294 294 293 293 292 291 290 291 290 291 291 291 292 292 292 293 296 298 301 304 302 307 308 310 311 311 310
310 308 306 305 300 295 301 299 301 299 298 296 296 294 295 295 296 294 292 294 300 300 297 296 295 294 294 294 292 292 293 291 290 290 289 288 288 289 290 291 292 293 293 295 297 299 301 302 299 302 303 305 307 307
299 297 299 291 300 299 300 298 298 297 295 296 297 296 296 296 293 292 292 296 300 301 298 298 295 294 293 292 292 293 293 291 290 289 290 289 289 291 291 291 292 293 293 293 293 294 296 300 301 300 300 300 300 300
292 299 296 301 300 299 298 296 296 296 296 296 297 297 297 295 293 291 293 297 302 303 300 299 296 294 293 295 294 294 293 293 292 290 290 289 289 289 289 289 289 291 293 293 293 295 297 299 299 298 298 297 295 299
294 299 301 303 302 303 301 301 300 296 296 296 296 296 295 291 292 296 299 302 302 302 303 302 302 298 295 296 295 294 293 294 293 292 291 291 291 290 290 289 289 290 292 294 296 296 296 297 297 297 296 296 296 297
305 303 299 301 301 301 300 299 298 297 298 299 298 296 294 295 295 299 302 304 304 304 302 302 301 297 296 296 296 295 295 294 295 293 292 291 291 291 291 292 292 290 292 294 295 295 294 294 295 295 295 294 293 294
304 307 304 302 302 299 300 299 299 299 301 300 298 297 300 303 305 305 305 306 301 298 297 296 295 296 298 298 296 294 295 294 291 289 288 287 288 289 291 291 291 291 292 293 291 292 293 292 291 291 291 291 292 292
304 306 304 303 300 298 300 302 301 301 301 302 303 303 304 305 308 310 306 305 300 300 298 296 296 297 297 294 292 291 291 292 292 290 288 288 288 289 290 290 290 290 291 292 291 291 291 291 290 291 290 290 290 290
305 303 301 300 300 303 303 303 302 303 304 304 305 304 303 305 308 307 306 300 299 299 298 296 296 297 296 294 291 290 289 291 291 291 290 289 290 290 290 290 289 290 290 290 289 289 289 288 288 287 287 288 288 288
303 302 301 300 300 303 303 301 300 301 302 303 303 305 304 303 301 303 303 300 300 299 298 298 297 296 297 296 295 293 290 291 291 291 291 290 290 289 289 289 289 290 290 290 290 289 289 288 288 288 288 287 288 288
303 302 301 300 301 301 301 301 300 301 302 302 303 304 304 303 300 302 301 301 302 300 297 297 297 296 294 293 292 292 291 291 289 288 288 288 288 288 289 289 290 290 289 289 288 288 288 287 286 287 287 287 288 288

GFSWCAN_sfc_thetae_192.txt.gz
Theta_e
313 313 313 312 311 312 311 310 311 311 311 311 311 311 312 310 308 306 304 305 299 293 296 299 298 294 294 296 292 295 295 293 293 292 292 293 293 295 295 299 300 298 297 296 298 297 297 316 313 309 318 325 322 321
313 313 313 312 311 312 311 311 311 311 311 311 311 311 311 310 309 308 301 305 305 295 295 303 303 304 302 300 296 297 295 293 297 291 297 295 294 299 298 294 307 300 303 302 302 302 314 318 319 323 326 326 328 329
312 312 313 312 310 310 311 310 310 310 311 311 311 311 311 311 310 308 304 304 301 296 295 296 298 304 307 305 304 292 296 298 294 298 293 296 293 300 297 298 304 308 311 307 307 310 316 317 322 324 327 327 329 331
312 312 312 311 310 310 311 310 310 310 310 311 311 311 310 311 310 308 303 305 302 297 290 297 306 302 306 306 305 304 301 302 301 299 292 292 294 300 297 302 304 309 311 310 313 315 315 319 320 323 325 329 330 332
311 312 311 310 309 310 311 310 309 310 310 310 311 310 310 310 309 307 306 306 306 297 291 293 302 305 306 306 304 304 301 298 296 293 292 294 299 298 300 303 304 308 306 307 307 308 309 313 319 325 325 325 330 334
311 312 311 310 309 310 310 309 309 309 309 310 311 310 309 309 308 304 296 305 306 304 293 290 304 303 304 304 303 302 301 299 297 293 293 297 301 298 294 296 308 312 312 310 306 311 312 314 316 325 326 336 342 344
311 311 310 309 308 310 310 310 309 309 309 310 310 309 309 308 306 300 298 304 307 305 293 289 295 301 301 302 303 302 303 299 298 295 295 298 300 300 297 292 303 305 308 308 309 312 310 313 313 325 329 327 341 346
311 310 309 308 309 310 309 309 310 308 308 310 309 309 309 308 306 301 306 308 307 301 297 289 292 297 304 301 299 303 299 299 299 296 298 297 298 300 295 300 300 302 306 305 308 313 314 316 318 325 325 324 333 341
311 309 308 307 309 309 309 310 310 308 309 309 309 309 309 305 300 303 309 309 308 300 289 288 288 291 305 304 305 303 303 295 301 296 298 299 296 293 298 300 299 304 309 310 308 312 315 316 318 322 324 324 324 328
309 309 308 308 309 309 310 310 308 308 308 309 310 304 300 303 309 309 303 298 297 295 296 288 292 290 300 302 301 301 301 295 293 297 302 295 296 301 302 305 308 309 311 311 306 307 311 317 319 319 323 325 325 327
309 308 307 309 309 309 310 309 308 308 307 310 304 302 307 310 304 298 291 290 288 288 291 292 292 291 304 296 299 305 298 299 291 296 296 293 295 301 306 308 309 309 310 312 311 312 315 322 321 320 320 323 326 328
308 307 307 309 309 310 309 309 308 311 314 309 309 310 309 302 296 290 287 287 285 286 292 292 295 297 300 304 299 302 297 299 290 302 295 294 299 303 306 308 311 311 310 311 312 312 314 322 324 320 321 324 327 330
307 306 308 308 309 310 309 309 308 308 308 314 308 306 308 306 293 291 290 294 291 289 295 297 296 298 304 304 298 297 295 294 302 297 295 295 299 302 305 308 308 313 311 312 310 310 313 319 324 323 322 326 326 330
307 306 308 308 310 310 310 309 309 310 313 312 307 294 300 298 300 301 300 301 301 297 296 297 295 295 297 294 291 289 291 293 292 289 289 293 296 300 305 310 310 311 313 313 313 309 311 317 321 323 326 327 327 328
307 307 308 309 310 310 310 309 309 316 317 308 306 297 301 305 305 305 307 307 308 308 300 297 296 295 292 290 290 292 291 288 288 288 289 297 298 300 302 306 308 311 314 316 316 313 314 317 318 322 325 326 328 328
307 308 312 308 308 309 309 312 318 321 318 309 308 303 306 304 304 305 305 305 309 309 309 305 300 295 293 294 292 290 288 286 292 296 298 303 302 300 301 305 307 309 311 313 318 317 317 318 317 319 323 326 327 327
306 318 307 308 307 308 309 318 321 312 309 307 305 309 307 307 305 305 307 306 310 306 301 304 297 295 300 292 287 292 292 297 301 302 305 304 302 303 303 304 306 307 308 309 309 311 312 313 314 314 313 317 323 324
315 316 310 308 309 315 324 322 315 310 304 308 304 307 309 309 307 307 308 308 307 305 303 300 302 296 293 292 293 301 304 306 306 305 303 304 305 306 306 305 306 307 306 308 309 309 309 309 308 308 310 312 312 316
310 310 308 308 310 319 317 317 318 306 307 311 312 311 311 310 311 311 310 309 309 308 304 302 297 295 296 300 300 302 302 303 304 303 303 306 306 306 305 307 310 308 308 307 308 309 310 310 310 311 311 312 310 313
307 308 309 310 311 321 312 316 321 312 308 309 313 310 310 310 313 310 310 309 307 304 301 299 299 301 301 302 303 301 300 301 300 298 300 302 304 306 306 305 304 307 306 311 312 306 312 312 313 314 313 311 311 310
312 319 313 317 327 321 317 317 315 315 315 311 315 312 310 314 310 309 308 311 306 303 301 304 304 305 307 306 305 304 303 302 299 299 299 299 302 303 303 303 305 304 303 303 305 306 305 308 310 313 313 313 313 315
323 313 325 324 323 317 315 319 316 319 314 314 314 314 310 309 308 310 313 307 306 307 308 307 306 306 305 305 305 306 305 304 303 300 299 299 299 299 299 300 301 300 301 302 303 304 306 306 307 307 309 310 310 313
315 318 323 323 317 309 306 319 313 314 308 311 313 308 309 310 312 315 308 308 308 313 310 309 308 309 306 307 308 307 306 305 301 300 300 300 300 300 300 300 300 299 300 302 305 305 306 301 305 306 306 305 306 308
310 318 314 314 314 306 314 311 315 313 313 310 308 305 308 311 314 309 305 309 312 315 310 310 306 305 307 307 307 305 305 305 303 301 301 300 298 298 299 299 299 299 300 300 301 302 304 303 300 305 305 304 304 304
307 306 308 297 314 309 307 307 308 309 305 307 305 306 309 313 307 305 303 308 312 312 313 312 307 308 307 306 307 305 306 304 302 300 300 300 299 299 298 299 299 299 299 298 297 298 298 300 300 299 299 301 301 299
296 310 303 309 310 308 308 303 305 305 306 305 307 312 313 309 302 300 307 311 313 313 312 312 313 308 307 309 308 307 305 306 305 301 300 300 299 297 296 296 295 296 299 298 297 296 296 296 297 297 297 296 294 296
299 308 313 317 316 315 311 313 315 310 304 304 309 307 307 300 300 307 313 316 316 316 316 316 315 312 308 307 307 308 307 306 303 301 302 301 300 300 298 296 295 296 299 298 297 296 295 295 295 295 295 296 297 296
311 314 309 313 312 314 308 308 306 304 307 313 311 304 302 303 305 314 316 318 317 316 315 314 312 310 309 308 308 308 308 307 306 302 302 301 301 300 300 299 299 292 297 297 296 296 295 295 294 294 294 294 295 296
312 316 316 311 312 313 311 308 308 311 316 313 309 308 309 316 318 316 318 317 315 313 310 308 308 309 308 308 307 306 304 301 298 295 295 294 295 296 298 298 298 298 297 297 291 293 294 294 295 295 295 295 295 296
311 318 313 311 309 307 312 315 315 317 319 318 318 317 316 317 319 323 320 317 312 311 311 310 309 309 306 305 302 301 301 300 299 297 294 294 295 297 297 297 297 297 297 296 295 295 292 294 293 295 294 294 294 294
316 316 312 311 308 313 317 318 318 318 317 317 319 316 316 317 318 321 321 317 313 311 310 309 309 309 306 304 303 301 298 300 299 299 297 297 297 297 297 297 297 297 296 295 294 294 293 293 293 293 292 291 292 292
315 313 310 308 310 317 316 314 314 314 315 314 314 317 315 314 312 314 313 313 311 310 304 309 308 305 304 302 301 300 295 299 298 297 297 296 296 296 296 296 295 295 294 294 294 293 293 292 292 292 291 291 291 292
315 315 314 313 311 312 313 312 311 312 313 313 314 315 315 314 310 314 314 316 314 311 310 308 306 304 303 302 300 299 297 297 291 288 288 287 286 289 294 295 295 295 294 294 294 293 293 292 292 292 291 290 290 291